Showing default

DTUSAT 2, 40030

Orbit data source: Space-Track

DTUSAT 2, 40030 is a payload satellite owned by DTU (DK) in SSO that was launched on Thu, 19 Jun 2014 UTC via a DNEPR launch vehicle from the Orenburg, Russia (OREN). Payload-class satellites include a variety of spacecraft equipped with specific instruments for various scientific and technological missions. These include communications satellites like Starlink; space stations such as the ISS; scientific satellites like the Hubble; Earth observation satellites from companies like Planet Labs, Umbra, and HawkEye 360; GPS; miniature CubeSats for education and research; and military/defense satellites.

Loading next visibility...
Identifier
40030, 2014-033W
Orbit
SSO
Country
Flag of DKDK / DEN
Related business
Manufacturer
DTU
Mission
Operational Amateur Communications
Bus & Motor
CUBESAT 1U, Unknown motor
Mass
1.333 kg wet, 1.333 kg dry
Launch date (UTC)
2014-06-19 (11 years ago)
Launch vehicle
DNEPR
Launch site
Orenburg, Russia (OREN)
Object type
Payload
Rocket body
Debris
Shape & HBR
Box, 0.1 m
Radar Cross Section
0.015 m², Small (<0.1 m²)

Expand to show TLE details & history
Last TLE update: 8 hours ago

TLE from 8 hours ago
0 DTUSAT 2
1 40030U 14033W   25343.49245343  .00012096  00000-0  71427-3 0  9991
2 40030  98.0763 324.7758 0009009 149.6496 210.5256 15.11649258623997
Epoch: 2025-12-09T11:49Z
TLE epoch observation values (Epoch: 2025-12-09T11:49:07.976Z)
Latitude
-0.00001°
Longitude
69.01621°
Altitude
539.593 km
Speed
7.59 km/s
True Right ascension
21h 39m 06s
True Declination
0° 00' 00"
Sunlit
Object was in daylight at epoch
Visualization orbit readout
Latitude
Unknown
Longitude
Unknown
Altitude
Unknown
Speed
Unknown
Apparent Right ascension
Unknown
Apparent Declination
Unknown
Sunlit
N/A
Visualization observer readout
Local Sidereal Time
18:33:33
Azimuth
Unknown
Elevation
Unknown
Doppler factor
Unknown
Orbital elements
Apogee altitude
534.399 km
Perigee altitude
521.955 km
Semi-major axis
6,906.314 km
Eccentricity
0.0009
Inclination
98.0763°
RAAN
324.7758°
Arg. of periapsis
149.6496°
True anomaly
210.47322°
Mean anomaly
210.5256°
Eccentric anomaly
210.4994°
Mean motion
3.78158 °/min
Orbital period
95.2 mins
BSTAR
0.00071427
Loading maneuver chart data...
Computing Atmospheric mass density...
Loading historical data...
Loading historical data...
Loading historical data...
Loading historical data...
Loading historical data...
Loading historical data...
Loading historical data...

Documentation

Showing up to 5 results
|